TimeCST,TemperatureF,Dew PointF,Humidity,Sea Level PressureIn,VisibilityMPH,Wind Direction,Wind SpeedMPH,Gust SpeedMPH,PrecipitationIn,Events,Conditions,WindDirDegrees,DateUTC
12:15 AM,50.0,50.0,100,30.08,7.0,ENE,8.1,-,0.06,Rain,Rain,60,2013-01-09 06:15:00
12:35 AM,50.0,50.0,100,30.07,7.0,East,8.1,-,0.11,Rain,Rain,90,2013-01-09 06:35:00
12:55 AM,51.8,51.8,100,30.06,7.0,East,8.1,-,0.16,Rain,Light Rain,100,2013-01-09 06:55:00
1:35 AM,50.0,50.0,100,30.07,7.0,NNW,10.4,-,0.05,Rain,Rain,340,2013-01-09 07:35:00
1:55 AM,50.0,50.0,100,30.09,7.0,North,9.2,-,0.10,Rain,Rain,360,2013-01-09 07:55:00
2:15 AM,50.0,50.0,100,30.09,7.0,NNE,5.8,-,0.05,Rain,Rain,20,2013-01-09 08:15:00
2:35 AM,50.0,50.0,100,30.08,7.0,ENE,5.8,-,0.09,Rain,Rain,60,2013-01-09 08:35:00
2:55 AM,50.0,50.0,100,30.07,10.0,ENE,10.4,-,0.11,Rain,Light Rain,60,2013-01-09 08:55:00
3:15 AM,50.0,50.0,100,30.07,10.0,NE,9.2,-,0.01,Rain,Light Rain,40,2013-01-09 09:15:00
3:35 AM,50.0,50.0,100,30.08,10.0,ENE,11.5,-,0.03,Rain,Rain,70,2013-01-09 09:35:00
3:55 AM,50.0,50.0,100,30.09,10.0,ENE,4.6,-,0.05,Rain,Rain,70,2013-01-09 09:55:00
4:15 AM,50.0,50.0,100,30.09,10.0,North,3.5,-,0.02,Rain,Rain,360,2013-01-09 10:15:00
4:35 AM,50.0,50.0,100,30.09,10.0,North,5.8,-,0.03,Rain,Light Rain,350,2013-01-09 10:35:00
4:55 AM,50.0,50.0,100,30.09,7.0,North,8.1,-,0.04,Rain,Rain,10,2013-01-09 10:55:00
5:47 AM,51.8,48.2,88,30.11,3.0,NE,9.2,-,N/A,Rain,Rain,50,2013-01-09 11:47:00
7:47 AM,51.8,50.0,94,30.13,4.0,NNE,9.2,17.3,N/A,Rain,Rain,30,2013-01-09 13:47:00
8:47 AM,53.6,50.0,88,30.14,4.0,NE,11.5,18.4,N/A,Rain,Rain,40,2013-01-09 14:47:00
9:48 AM,53.6,50.0,88,30.14,5.0,NE,12.7,19.6,N/A,Rain,Rain,40,2013-01-09 15:48:00
10:47 AM,53.6,51.8,94,30.14,3.0,NE,10.4,-,N/A,Rain,Rain,50,2013-01-09 16:47:00
11:50 AM,53.6,51.8,94,30.09,5.0,NE,11.5,-,N/A,Rain,Rain,50,2013-01-09 17:50:00
12:47 PM,55.4,53.6,94,30.05,5.0,ENE,15.0,27.6,N/A,Rain,Rain,60,2013-01-09 18:47:00
1:55 PM,55.4,53.6,94,29.99,5.0,ENE,23.0,42.6,N/A,Rain,Light Rain,60,2013-01-09 19:55:00
2:53 PM,55.4,53.6,94,30.03,5.0,ENE,15.0,25.3,N/A,Rain,Light Rain,70,2013-01-09 20:53:00
3:47 PM,55.4,55.4,100,30.06,6.0,East,16.1,24.2,N/A,Rain,Light Rain,80,2013-01-09 21:47:00
4:47 PM,55.4,53.6,94,30.04,7.0,ENE,16.1,24.2,N/A,Rain,Light Rain,70,2013-01-09 22:47:00
5:47 PM,55.4,53.6,94,30.00,7.0,ENE,18.4,27.6,N/A,Rain,Light Rain,60,2013-01-09 23:47:00
6:53 PM,55.4,51.8,88,29.99,10.0,ENE,16.1,28.8,N/A,,Overcast,70,2013-01-10 00:53:00
7:52 PM,55.4,51.8,88,30.00,13.0,ENE,19.6,26.5,N/A,,Overcast,70,2013-01-10 01:52:00
8:48 PM,55.4,51.8,88,30.03,13.0,East,9.2,-,N/A,,Overcast,90,2013-01-10 02:48:00
9:15 PM,53.6,53.6,100,30.05,10.0,ESE,5.8,-,N/A,,Overcast,120,2013-01-10 03:15:00
9:35 PM,55.4,55.4,100,30.06,10.0,ESE,8.1,-,N/A,Rain,Rain,110,2013-01-10 03:35:00
9:47 PM,55.4,53.6,94,30.06,3.0,East,9.2,-,N/A,Rain,Light Rain,100,2013-01-10 03:47:00
9:55 PM,55.4,55.4,100,30.05,3.0,East,9.2,-,0.01,Rain,Rain,100,2013-01-10 03:55:00
10:15 PM,55.4,55.4,100,30.04,2.5,East,11.5,18.4,0.01,Rain,Light Rain,100,2013-01-10 04:15:00
10:35 PM,55.4,55.4,100,30.02,4.0,East,13.8,18.4,0.01,,Overcast,90,2013-01-10 04:35:00
10:55 PM,55.4,55.4,100,30.02,7.0,East,12.7,19.6,0.01,,Overcast,90,2013-01-10 04:55:00
11:35 PM,55.4,55.4,100,30.01,7.0,East,11.5,20.7,N/A,Rain,Light Rain,90,2013-01-10 05:35:00
11:55 PM,55.4,55.4,100,30.01,5.0,East,11.5,19.6,0.01,Rain,Light Rain,90,2013-01-10 05:55:00